Location: Poughquag
(41.6090°N, 73.6820°W)
Time: 06:51:47
(UTC-04:00)

Altair - Visible Passes

Search period start: 29 May 2020 00:00
Search period end: 08 June 2020 00:00
Orbit: 1501 x 1683 km, 47.2° (Epoch: 28 May)

Date Brightness Start Highest point End Pass type
(mag) Time Alt. Az. Time Alt. Az. Time Alt. Az.
29 May 8.0 01:38:16 10° W 01:48:21 66° N 01:58:29 10° ENE visible
29 May 7.9 03:44:02 10° WNW 03:54:16 73° NNE 04:04:20 10° ESE visible
29 May 8.3 21:06:26 10° S 21:14:06 26° SE 21:21:54 10° ENE visible
29 May 7.5 23:07:51 10° SW 23:17:45 75° SSE 23:27:55 10° ENE visible
30 May 7.9 01:12:58 10° W 01:23:03 67° N 01:33:12 10° ENE visible
30 May 7.9 03:18:46 10° WNW 03:28:59 71° NNE 03:39:05 10° E visible
30 May 8.4 20:41:47 10° S 20:49:02 24° SE 20:56:26 10° ENE visible
30 May 7.5 22:42:44 10° SW 22:52:35 71° SE 23:02:40 10° ENE visible
31 May 7.9 00:47:42 10° W 00:57:45 68° NNW 01:07:56 10° ENE visible
31 May 7.9 02:53:32 10° WNW 03:03:42 70° NNE 03:13:48 10° E visible
31 May 7.5 22:17:39 10° SW 22:27:23 67° SE 22:37:25 10° ENE visible
01 Jun 7.9 00:22:26 10° W 00:32:28 70° NNW 00:42:40 10° ENE visible
01 Jun 8.0 02:28:16 10° WNW 02:38:25 68° NNE 02:48:31 10° E visible
01 Jun 7.7 04:33:30 10° WNW 04:43:37 71° SW 04:53:32 10° SE visible
01 Jun 7.6 21:52:35 10° SW 22:02:13 63° SE 22:12:10 10° ENE visible
01 Jun 7.8 23:57:10 10° W 00:07:11 72° NNW 00:17:24 10° ENE visible
02 Jun 8.0 02:02:59 10° WNW 02:13:08 67° N 02:23:14 10° E visible
02 Jun 7.6 04:08:16 10° WNW 04:18:26 75° SSW 04:28:26 10° SE visible
02 Jun 7.6 21:27:32 10° SW 21:37:04 59° SE 21:46:54 10° ENE visible
02 Jun 7.8 23:31:55 10° WSW 23:41:55 74° NNW 23:52:09 10° ENE visible
03 Jun 8.0 01:37:43 10° WNW 01:47:50 66° N 01:57:57 10° E visible
03 Jun 7.6 03:43:01 10° WNW 03:53:14 79° SSW 04:03:16 10° SE visible
03 Jun 7.7 21:02:32 10° SSW 21:11:56 55° SE 21:21:38 10° ENE visible
03 Jun 7.8 23:06:40 10° WSW 23:16:39 76° NNW 23:26:53 10° ENE visible
04 Jun 8.0 01:12:27 10° WNW 01:22:31 65° N 01:32:39 10° E visible
04 Jun 7.6 03:17:47 10° WNW 03:28:00 83° SSW 03:38:07 10° ESE visible
04 Jun 7.8 22:41:26 10° WSW 22:51:24 78° NNW 23:01:37 10° ENE visible
05 Jun 8.0 00:47:11 10° WNW 00:57:13 64° N 01:07:21 10° E visible
05 Jun 7.6 02:52:33 10° WNW 03:02:48 87° SSW 03:12:56 10° ESE visible
05 Jun 7.7 22:16:14 10° WSW 22:26:09 81° NNW 22:36:22 10° ENE visible
06 Jun 8.0 00:21:55 10° W 00:31:55 64° N 00:42:03 10° E visible
06 Jun 7.6 02:27:20 10° WNW 02:37:34 90° NE 02:47:44 10° ESE visible
06 Jun 8.0 04:32:43 10° WNW 04:41:47 38° SW 04:50:43 10° SSE visible
06 Jun 7.7 21:51:01 10° WSW 22:00:54 84° NNW 22:11:07 10° ENE visible
06 Jun 8.0 23:56:39 10° W 00:06:37 64° N 00:16:45 10° E visible
07 Jun 7.6 02:02:06 10° WNW 02:12:19 86° NNE 02:22:31 10° ESE visible
07 Jun 7.9 04:07:24 10° WNW 04:16:39 42° SW 04:25:49 10° SSE visible
07 Jun 7.7 21:25:50 10° WSW 21:35:40 87° NNW 21:45:52 10° ENE visible
07 Jun 8.0 23:31:24 10° W 23:41:19 64° N 23:51:26 10° E visible
